Flag Weather past 2 weeks in Alsfeld, Hesse, Germany

Now
53 °F

Fog.


Feels Like: 53 °F
Forecast: 47 / 55 °F
Wind: 2 mph from South

Location: Fritzlar

Current Time: Oct 30, 2014 at 8:12:56 PM

Latest Report: Oct 30, 2014 at 7:00 PM


Visibility: 3 mi

Pressure: 30.29 "Hg

Humidity: 92%

Dew point: 50 °F

Location of AlsfeldLocation

Historic Weather in Alsfeld — Graph

°F

Alsfeld temperature yesterday

Maximum temperature yesterday: 50 °F (at 2:00 PM)
Minimum temperature yesterday: 42 °F (at 6:00 AM)
Average temperature yesterday: 46 °F

Past Weeks' High & Low Weather Summary

 TemperatureHumidityPressure
High66 °F (Oct 19, 5:00 PM)99% (Oct 18, 7:00 AM)30.36 "Hg (Oct 18, 7:00 AM)
Low42 °F (Oct 29, 6:00 AM)62% (Oct 23, 2:00 PM)29.50 "Hg (Oct 21, 6:00 PM)
Average51 °F85%30.08 "Hg
* Reported Oct 15 8:00 PM — Oct 30 7:00 PM, Alsfeld, Weather by CustomWeather, © 2014

Note: Actual official high and low records may vary slightly from our data, if they occured in-between our weather recording intervals... More about our weather records

Advertising

Alsfeld weather history for previous 24 hours

 ConditionsComfort  
Time TempWeatherWind HumidityBarometerVisibility
7:00 PM
Oct 30
53 °FFog.2 mph92%30.29 "Hg3 mi
6:00 PM53 °FFog.3 mph91%30.28 "Hg3 mi
5:00 PM53 °FFog.3 mph89%30.28 "Hg3 mi
4:00 PM53 °FFog.2 mph89%30.27 "Hg3 mi
3:00 PM53 °FFog.3 mph88%30.27 "Hg3 mi
2:00 PM53 °FFog.3 mph87%30.27 "Hg2 mi
1:00 PM52 °FFog.3 mph88%30.27 "Hg2 mi
12:00 PM51 °FFog.3 mph90%30.26 "Hg2 mi
11:00 AM50 °FFog.3 mph91%30.26 "Hg2 mi
10:00 AM49 °FFog.2 mph91%30.27 "Hg2 mi
9:00 AM48 °FDrizzle. Low clouds.2 mph95%30.25 "Hg1 mi
8:00 AM48 °FFog.1 mph93%30.25 "Hg2 mi
7:00 AM47 °FFog.2 mph94%30.22 "Hg2 mi
6:00 AM47 °FLow clouds.2 mph95%30.21 "Hg2 mi
5:00 AM47 °FDrizzle. Low clouds.2 mph96%30.20 "Hg1 mi
4:00 AM47 °FFog.1 mph95%30.20 "Hg2 mi
3:00 AM47 °FFog.2 mph94%30.19 "Hg2 mi
2:00 AM47 °FFog.2 mph94%30.18 "Hg2 mi
1:00 AM47 °FFog.2 mph94%30.17 "Hg2 mi
12:00 AM47 °FLow clouds.2 mph94%30.17 "Hg2 mi
11:00 PM
Oct 29
46 °FRain. Low clouds.2 mph95%30.16 "Hg1 mi
10:00 PM47 °FOvercast.1 mph93%30.16 "Hg2 mi
9:00 PM47 °FRain. Overcast.3 mph91%30.15 "Hg3 mi
8:00 PM47 °FLight rain. Overcast.3 mph90%30.13 "Hg3 mi
Weather by CustomWeather, © 2014

See weather overviewHow to use our weather pages